Tracking 19286 objects as of 18-Nov-2018
HD Live streaming from Space Station
objects crossing your sky now

COSMOS 886

Track COSMOS 886 now!
10-day predictions
COSMOS 886 is classified as:


NORAD ID: 9634
Int'l Code: 1976-126A
Perigee: 591.3 km
Apogee: 2,300.9 km
Inclination: 65.8 °
Period: 114.6 minutes
Semi major axis: 7817 km
RCS: 4.7964 m2 (large)
Launch date: December 27, 1976
Source: Commonwealth of Independent States (former USSR) (CIS)
Launch site: TYURATAM MISSILE AND SPACE COMPLEX (TTMTR)
aabbcc
Your satellite tracking list
Your tracking list is empty




NASA's NSSDC Master Catalog

Two Line Element Set (TLE):
1  9634U 76126A   18322.43777371 -.00000036  00000-0  19934-4 0  9999
2  9634  65.8359 344.6975 1093516 306.5728  43.9376 12.56138568932702
Source of the keplerian elements: AFSPC